This is the latest recevied weather packets stored in our database for station/object 9M2IBR-1. If no packets are shown the sender has not sent any weather packets the latest 10 day(s).
| Time | Temp. | Humidity | Pressure | Rain* | Wind** | Luminosity | Snow |
|---|---|---|---|---|---|---|---|
| 1777619730 | 32.78° C | 74% | 1006.3 hPa | 0 mm | - | 517 W/m² | - |
| 1777619126 | 33.33° C | 73% | 1006.4 hPa | 0 mm | - | 474 W/m² | - |
| 1777618824 | 33.89° C | 72% | 1006.6 hPa | 0 mm | - | 769 W/m² | - |
| 1777617656 | 32.78° C | 78% | 1007.3 hPa | 0 mm | - | 715 W/m² | - |
| 1777616161 | 31.67° C | 82% | 1007.9 hPa | 0 mm | - | 322 W/m² | - |
| 1777615229 | 32.22° C | 77% | 1008.2 hPa | 0 mm | - | 399 W/m² | - |
| 1777613719 | 32.22° C | 78% | 1008.9 hPa | 0 mm | - | 472 W/m² | - |
| 1777613458 | 32.78° C | 78% | 1009 hPa | 0 mm | - | 501 W/m² | - |
| 1777612526 | 32.22° C | 77% | 1009.3 hPa | 0 mm | - | 280 W/m² | - |
| 1777611620 | 32.78° C | 76% | 1009.8 hPa | 0 mm | - | 254 W/m² | - |
| 1777608916 | 33.89° C | 70% | 1010.1 hPa | 0 mm | - | 654 W/m² | - |
| 1777608629 | 33.89° C | 71% | 1010.1 hPa | 0 mm | - | 629 W/m² | - |
| 1777608327 | 33.89° C | 71% | 1010.2 hPa | 0 mm | - | 647 W/m² | - |
| 1777608025 | 33.89° C | 72% | 1010.1 hPa | 0 mm | - | 639 W/m² | - |
| 1777607421 | 33.33° C | 72% | 1010.3 hPa | 0 mm | - | 629 W/m² | - |
| 1777606817 | 33.33° C | 73% | 1010.4 hPa | 0 mm | - | 544 W/m² | - |
| 1777606530 | 33.33° C | 73% | 1010.5 hPa | 0 mm | - | 527 W/m² | - |
| 1777604718 | 33.33° C | 75% | 1010.5 hPa | 0 mm | - | 498 W/m² | - |
| 1777602316 | 33.33° C | 74% | 1010.5 hPa | 0 mm | - | 595 W/m² | - |
| 1777600217 | 31.11° C | 81% | 1010.1 hPa | 0 mm | - | 458 W/m² | - |
| 1777599627 | 30.56° C | 83% | 1009.8 hPa | 0 mm | - | 379 W/m² | - |
| 1777597528 | 29.44° C | 85% | 1009.4 hPa | 0 mm | - | 248 W/m² | - |
| 1777596622 | 28.89° C | 87% | 1009.4 hPa | 0 mm | - | 182 W/m² | - |
| 1777595429 | 27.78° C | 91% | 1009.1 hPa | 0 mm | - | 137 W/m² | - |
| 1777595128 | 27.22° C | 92% | 1009.1 hPa | 0 mm | - | 123 W/m² | - |
* Rain latest hour (hover to see other rain measurements)
** Current wind speed in m/s (hover to see current wind gust speed)